AO-07 1 07530U 74089B 23005.41829347 -.00000033 00000-0 83090-4 0 9992 2 07530 101.9306 351.1080 0012343 15.9964 152.4207 12.53659915202777 UO-11 1 14781U 84021B 23005.21274184 .00001479 00000-0 18330-3 0 9994 2 14781 97.6388 348.7328 0008986 27.7696 332.3997 14.84093578 69962 AO-16 1 20439U 90005D 23005.43692541 .00000206 00000-0 92376-4 0 9995 2 20439 98.8684 351.6361 0010178 325.2199 188.1037 14.32980554721599 LO-19 1 20442U 90005G 23005.15665893 .00000194 00000-0 87590-4 0 9996 2 20442 98.8229 338.3936 0010816 299.8624 60.1484 14.33133884721992 HUBBLE 1 20580U 90037B 23005.42557920 .00003574 00000-0 19483-3 0 9995 2 20580 28.4698 269.6472 0002647 58.4800 104.9883 15.11550510596797 MET-2/21 1 22782U 93055A 23005.57574396 .00000063 00000-0 43063-4 0 9998 2 22782 82.5479 213.8125 0023059 138.0445 240.4950 13.83869166481967 AO-27 1 22825U 93061C 23005.55915457 .00000133 00000-0 69257-4 0 9999 2 22825 98.8649 45.6406 0008525 175.7189 184.4067 14.30225168527048 IO-26 1 22826U 93061D 23005.53314288 .00000146 00000-0 73629-4 0 9995 2 22826 98.8594 45.4824 0009294 162.7953 197.3546 14.30576995527300 FO-29 1 24278U 96046B 23005.22330769 .00000003 00000-0 35869-4 0 9998 2 24278 98.5145 6.1125 0351164 119.6345 244.0256 13.53126971302894 NOAA-15 1 25338U 98030A 23005.54333446 .00000178 00000-0 92193-4 0 9997 2 25338 98.6247 37.2372 0011336 70.7527 289.4879 14.26217019282074 GO-32 1 25397U 98043D 23005.11905491 .00000090 00000-0 59074-4 0 9998 2 25397 98.8466 321.3841 0000491 193.2676 166.8489 14.23800740272124 ISS 1 25544U 98067A 23005.85973553 .00014065 00000-0 25437-3 0 9995 2 25544 51.6451 52.6066 0004815 230.2771 302.5672 15.49950216376619 NO-44 1 26931U 01043C 23005.40649229 .00000179 00000-0 10002-3 0 9998 2 26931 67.0508 257.0948 0005328 277.7804 82.2692 14.30787336110291 SO-50 1 27607U 02058C 23005.39134976 .00001504 00000-0 22422-3 0 9994 2 27607 64.5552 43.7719 0080151 256.2737 102.9434 14.76551391 78188 CO-55 1 27844U 03031E 23005.29707139 .00000375 00000-0 18724-3 0 9990 2 27844 98.6791 14.9520 0008986 234.0543 125.9802 14.22575972 12576 CO-57 1 27848U 03031J 23005.25357461 .00000314 00000-0 16157-3 0 9990 2 27848 98.6831 15.3801 0008738 250.3909 109.6325 14.22115441 12349 RS-22 1 27939U 03042A 23005.35685388 .00001114 00000-0 20427-3 0 9990 2 27939 98.2159 151.4209 0011612 292.8253 67.1755 14.67712211 30657 NOAA-18 1 28654U 05018A 23005.54352627 .00000210 00000-0 13700-3 0 9990 2 28654 98.9292 80.6136 0015150 119.1991 241.0699 14.12833220908513 CO-58 1 28895U 05043F 23005.34179399 .00001575 00000-0 30391-3 0 9996 2 28895 98.1306 138.9921 0015684 222.6590 137.3396 14.64789962916963 Falconsat-3 1 30776U 07006E 23005.28905439 .00392910 59351-4 11071-2 0 9999 2 30776 35.4235 354.8276 0009108 203.3180 156.7152 15.92368864881227 CO-65 1 32785U 08021C 23005.43761618 .00003331 00000-0 34630-3 0 9991 2 32785 97.6846 335.2991 0011027 286.5538 73.4468 14.90513117796564 AAUSAT2 1 32788U 08021F 23004.91543338 .00007931 00000-0 64786-3 0 9998 2 32788 97.5566 348.5849 0010278 151.6124 208.5662 14.99613254798701 DO-64 1 32789U 08021G 23005.01834453 .00028745 00000-0 13351-2 0 9999 2 32789 97.3225 29.5780 0008663 352.9035 7.2076 15.19928851802472 CO-66 1 32791U 08021J 23005.34455168 .00005566 00000-0 52620-3 0 9999 2 32791 97.6366 340.5115 0010960 231.9354 128.0879 14.94033285797325 RS-30 1 32953U 08025A 23005.06761900 .00000024 00000-0 10000-3 0 9996 2 32953 82.5042 58.5523 0019752 176.9205 183.1999 12.43117028663382 PRISM 1 33493U 09002B 23005.22972763 .00008618 00000-0 65900-3 0 9997 2 33493 98.2453 8.8508 0016665 230.8989 129.0753 15.02086208759243 NOAA-19 1 33591U 09005A 23005.56801706 .00000191 00000-0 12777-3 0 9996 2 33591 99.1244 48.7153 0013541 344.0555 16.0188 14.12661697716988 SRMSAT 1 37841U 11058D 23005.61450308 .00000422 00000-0 86712-4 0 9991 2 37841 19.9716 112.8792 0012024 45.3816 342.9970 14.10809490579825 HRBE 1 37855U 11061F 23005.60877291 .00015947 00000-0 62574-3 0 9990 2 37855 101.7125 237.7735 0140330 174.6232 185.6532 15.17207477611837 RS-40 1 38735U 12041C 23005.43068225 .00000034 00000-0 17263-3 0 9993 2 38735 82.4764 139.5861 0016519 291.6376 68.2947 12.42589913473608 ZACUBE-1 1 39417U 13066B 23005.48400411 .00002902 00000-0 35093-3 0 9998 2 39417 97.6641 333.2668 0058248 101.6681 259.1078 14.83238120493066 Delfi-N3xt 1 39428U 13066N 23005.53160563 .00006121 00000-0 92125-3 0 9993 2 39428 97.8289 296.4477 0115091 352.0885 7.8502 14.70356906488393 GOMX-1 1 39430U 13066Q 23005.15819098 .00001492 00000-0 26985-3 0 9995 2 39430 97.7970 265.7329 0148887 128.2441 233.2276 14.60785091485735 LO-74 1 39440U 13066AA 23005.29060456 .00002338 00000-0 31673-3 0 9997 2 39440 97.7536 319.7392 0077050 195.5318 164.3529 14.77842339490083 AO-73 1 39444U 13066AE 23005.47716760 .00004011 00000-0 46830-3 0 9998 2 39444 97.6509 335.7073 0056935 88.8270 271.9468 14.84518375492076 SPROUT 1 39770U 14029E 23005.07744561 .00012641 00000-0 11810-2 0 9993 2 39770 97.9559 128.9002 0008574 136.3635 223.8292 14.94267449467730 DTUSAT-2 1 40030U 14033W 23005.05809875 .00003832 00000-0 39263-3 0 9992 2 40030 97.9546 303.9056 0012797 107.0916 253.1705 14.91018343463678 EO-80 1 40032U 14033Y 23005.57041093 .00004536 00000-0 46387-3 0 9998 2 40032 97.9552 304.4379 0012784 106.7886 253.4735 14.91004717464249 HODOYOSHI-1 1 40299U 14070B 23005.50078888 .00008392 00000-0 29678-3 0 9997 2 40299 97.2199 72.6792 0012541 133.8966 282.8190 15.29337901453917 FIREBIRD FU3 1 40377U 15003B 23005.57840190 .00041974 00000-0 95816-3 0 9991 2 40377 99.0793 281.6058 0083710 56.7073 304.2150 15.39076536439395 FIREBIRD FU4 1 40378U 15003C 23005.00526371 .00046019 00000-0 10474-2 0 9993 2 40378 99.0804 281.1636 0083714 58.1249 302.8102 15.39140627439317 GRIFEX 1 40379U 15003D 23005.16154064 .00021022 00000-0 64357-3 0 9994 2 40379 99.0864 264.5134 0104803 107.8080 253.4621 15.28548456438372 XW-2A 1 40903U 15049E 23005.44392973 .00057511 00000-0 54459-3 0 9995 2 40903 97.1499 70.4313 0008062 89.2059 37.7496 15.66746525410721 XW-2C 1 40906U 15049H 23005.49261299 .00009276 00000-0 41295-3 0 9998 2 40906 97.4959 12.6483 0013798 21.1123 130.1747 15.21602017403618 XW-2D 1 40907U 15049J 23005.47255532 .00010868 00000-0 46875-3 0 9998 2 40907 97.4946 12.8274 0012810 17.3953 128.6435 15.22648323403670 LILACSAT-2 1 40908U 15049K 23005.48997987 .00004939 00000-0 25121-3 0 9990 2 40908 97.5227 9.3247 0016001 41.3041 109.6105 15.17195549403108 XW-2E 1 40909U 15049L 23005.51328208 .00017715 00000-0 64581-3 0 9998 2 40909 97.4622 17.9865 0010543 352.7707 158.3796 15.28182304404218 XW-2F 1 40910U 15049M 23005.51270439 .00017654 00000-0 65441-3 0 9990 2 40910 97.4713 17.1748 0011541 353.4455 157.4979 15.27622390403978 XW-2B 1 40911U 15049N 23005.51756586 .00010681 00000-0 46273-3 0 9998 2 40911 97.4923 13.3963 0012845 17.9197 145.4628 15.22500921403565 DCBB 1 40912U 15049P 23005.52644116 .00020488 00000-0 67497-3 0 9992 2 40912 97.4307 21.5576 0009750 313.4768 197.5936 15.31457674404615 IO-86 1 40931U 15052B 23004.96274249 .00001336 00000-0 96214-4 0 9991 2 40931 5.9985 171.4874 0012078 143.5483 216.5525 14.76964027393189 AO-85 1 40967U 15058D 23004.02724969 .00003356 00000-0 37970-3 0 5782 2 40967 64.7736 181.2404 0169043 132.3061 229.2561 14.78344380 90301 ATHENOXAT-1 1 41168U 15077C 23005.38866459 .00033930 00000-0 11465-2 0 9996 2 41168 14.9835 26.7702 0008798 220.4259 176.7098 15.28558438391169 ChubuSat-2 1 41338U 16012B 23005.58934352 .00003358 00000-0 24155-3 0 9997 2 41338 31.0012 176.0670 0013089 359.4578 0.6042 15.02295978377891 ChubuSat-3 1 41339U 16012C 23005.51696591 .00002919 00000-0 20913-3 0 9991 2 41339 31.0094 173.4550 0013271 6.5002 34.0154 15.02297469377886 Horyu-4 1 41340U 16012D 23005.52941500 .00006113 00000-0 41509-3 0 9991 2 41340 31.0030 147.2612 0012783 53.8895 306.2923 15.04888294378173 e-st@r-II 1 41459U 16025D 23005.46901504 .00018276 00000-0 69718-3 0 9994 2 41459 98.1908 191.5578 0129902 301.5448 57.3175 15.19130685368109 AAUSAT4 1 41460U 16025E 23005.12273395 .00039715 00000-0 11888-2 0 9994 2 41460 98.1788 199.6886 0102360 270.5724 208.5473 15.29319020368642 LO-87 1 41557U 16033B 23005.47427873 .00025480 00000-0 60736-3 0 9991 2 41557 97.3889 109.3729 0009637 18.4472 112.0208 15.41515866368429 NuSat2 1 41558U 16033C 23005.50457733 .00023206 00000-0 52251-3 0 9991 2 41558 97.4143 116.2952 0009216 6.9280 56.6692 15.43249800368739 Lapan A3 1 41603U 16040E 23005.48652125 .00002221 00000-0 10199-3 0 9998 2 41603 97.1856 38.5215 0013197 162.3618 333.7321 15.21321471362745 Pratham 1 41783U 16059A 23005.53716728 .00000723 00000-0 14725-3 0 9997 2 41783 97.8900 43.7502 0031986 254.6345 105.1323 14.63568240335189 TY-1 1 41844U 16066D 23005.50743424 .00025862 00000-0 71687-3 0 9994 2 41844 97.3819 22.3127 0009304 291.9804 221.0382 15.36888203342568 CAS-2T 1 41847U 16066G 23005.43690197 .00000968 00000-0 15521-3 0 9992 2 41847 98.5274 74.6739 0361626 325.5476 32.2736 14.38996542323397 EO-88 1 42017U 17008BX 23005.14729388 .00043891 00000-0 96619-3 0 9991 2 42017 97.2443 74.1134 0002811 232.4367 127.6626 15.43830366328084 CAS-4B 1 42759U 17034B 23005.31015984 .00007776 00000-0 43460-3 0 9990 2 42759 43.0180 298.7147 0008835 129.4520 11.4884 15.13816596306921 CAS-4A 1 42761U 17034D 23005.53715286 .00007194 00000-0 40187-3 0 9996 2 42761 43.0186 296.0990 0009220 136.1707 32.8920 15.13916587306961 NIUSat 1 42766U 17036B 23005.33999988 .00015278 00000-0 51852-3 0 9997 2 42766 97.1798 41.1817 0011517 336.5358 23.5357 15.30534123307639 Aalto 1 1 42775U 17036L 23005.32691925 .00011722 00000-0 41916-3 0 9996 2 42775 97.1747 40.6424 0010797 337.9311 22.1463 15.28900757307588 URSA MAIOR 1 42776U 17036M 23005.54045201 .00014055 00000-0 48700-3 0 9991 2 42776 97.1759 41.8244 0010332 335.2258 24.8485 15.29891617307668 Max Valier Sat 1 42778U 17036P 23005.38509950 .00016536 00000-0 54998-3 0 9993 2 42778 97.1810 44.7447 0008997 336.7523 23.3310 15.31197630307758 Pegasus 1 42784U 17036V 23005.37705971 .00019437 00000-0 58492-3 0 9996 2 42784 97.1744 46.1268 0008062 334.8649 25.2201 15.34371023307910 NUDATSat 1 42787U 17036Y 23005.57160247 .00046097 00000-0 98685-3 0 9992 2 42787 97.1738 52.5022 0006165 312.1046 47.9722 15.44630081308167 SUCHAI 1 1 42788U 17036Z 23005.06035321 .00031157 00000-0 84038-3 0 9999 2 42788 97.1740 48.1643 0007090 329.6000 30.4834 15.37713906308084 SKCUBE 1 42789U 17036AA 23005.39247407 .00022750 00000-0 64637-3 0 9998 2 42789 97.1740 47.6356 0007314 329.6268 30.4552 15.36155328308001 VZLUSAT 1 1 42790U 17036AB 23005.54738014 .00045786 00000-0 99369-3 0 9990 2 42790 97.1743 52.3776 0005358 315.1900 44.8915 15.44232092308302 VENTA 1 1 42791U 17036AC 23005.28611394 .00019960 00000-0 59550-3 0 9996 2 42791 97.1749 47.1581 0007367 332.6233 27.4621 15.34643624307957 Robusta 1B 1 42792U 17036AD 23005.38190319 .00024659 00000-0 67674-3 0 9994 2 42792 97.1734 48.4010 0006693 329.5235 30.5620 15.37225761308069 D-SAT 1 42794U 17036AF 23005.26615203 .00003030 00000-0 25225-3 0 9993 2 42794 97.4566 5.2162 0121990 128.5588 232.6640 14.93700675301593 TechnoSat 1 42829U 17042E 23005.20421500 .00002010 00000-0 20064-3 0 9991 2 42829 97.3976 212.3862 0015205 55.3818 304.8833 14.92472817298176 AO-91 1 43017U 17073E 23005.43016332 .00006980 00000-0 51421-3 0 9994 2 43017 97.6526 256.2872 0241115 245.3681 112.2247 14.83239235277035 PICSAT 1 43132U 18004X 23005.47196036 .00028110 00000-0 73840-3 0 9999 2 43132 97.3546 86.3860 0006909 3.8055 356.3242 15.38555815277383 AO-92 1 43137U 18004AC 23005.44560603 .00018980 00000-0 56900-3 0 9998 2 43137 97.3504 84.1751 0007360 15.0144 345.1316 15.34505470277266 TianYi 2 1 43155U 18008A 23005.50895115 .00012338 00000-0 59531-3 0 9992 2 43155 97.3267 62.5035 0015296 155.8058 320.0919 15.18716998273900 Zhou Enlai 1 43156U 18008B 23005.47992861 .00013691 00000-0 66103-3 0 9991 2 43156 97.3312 62.4314 0012986 154.7953 329.4776 15.18699559273824 TianYi 6 1 43158U 18008D 23005.41165126 .00010783 00000-0 54615-3 0 9997 2 43158 97.3296 59.8806 0012262 157.3790 214.7782 15.17092219273695 S-Net D 1 43186U 18014G 23005.51762277 .00003182 00000-0 26844-3 0 9994 2 43186 97.6471 272.3247 0010685 343.6810 16.4067 14.98818661269171 S-Net B 1 43187U 18014H 23005.51808427 .00003158 00000-0 26644-3 0 9994 2 43187 97.6467 272.2663 0010670 343.4671 16.6202 14.98814999269178 S-Net A 1 43188U 18014J 23005.51837603 .00003140 00000-0 26498-3 0 9991 2 43188 97.6472 272.3424 0010652 343.5080 16.5795 14.98815471269178 S-Net C 1 43189U 18014K 23005.51955983 .00003213 00000-0 27105-3 0 9991 2 43189 97.6464 272.2533 0010588 342.9625 17.1240 14.98809524267729 FMN 1 1 43192U 18015A 23005.51563906 .00095029 00000-0 12879-2 0 9993 2 43192 97.5515 163.5757 0008155 9.7331 30.8650 15.57317587274654 Shaonian Xing 1 43199U 18015H 23005.51882626 .00035908 00000-0 79812-3 0 9994 2 43199 97.5326 155.9157 0011429 38.3135 30.6460 15.43523593274500 SurfSat 1 43614U 18070B 23005.54316674 .00326965 39364-4 10817-2 0 9999 2 43614 92.9932 185.5708 0005360 303.5690 56.5079 15.90345653242694 CP-7 DAVE 1 43615U 18070C 23005.43004584 .00181063 00000-0 92422-3 0 9994 2 43615 92.9945 184.9673 0006140 302.8872 57.1813 15.80868585242588 CubeBel-1 1 43666U 18083E 23005.48415255 .00018591 00000-0 68520-3 0 9997 2 43666 97.4032 37.2187 0011811 349.1804 148.5208 15.27796023232277 Changshagaoxin 1 43669U 18083H 23005.49385825 .00015372 00000-0 60345-3 0 9991 2 43669 97.3990 32.5649 0008600 352.3087 145.1199 15.25775300232066 Ten-Koh 1 43677U 18084G 23005.36276371 .00001943 00000-0 19830-3 0 9994 2 43677 97.9883 142.6786 0014924 330.2980 29.7389 14.91764654227772 PO-101 1 43678U 18084H 23005.33486033 .00001284 00000-0 13051-3 0 9997 2 43678 97.9954 146.3821 0009490 347.2840 12.8206 14.92607149227966 IRVINE 01 1 43693U 18088D 23004.90765781 .00307132 00000-0 23937-2 0 9994 2 43693 85.0151 171.9751 0006828 15.0227 345.1242 15.70784948231391 QO-100 1 43700U 18090A 23005.53477745 .00000157 00000-0 00000-0 0 9997 2 43700 0.0166 46.1986 0001928 274.9812 1.9782 1.00273409 15050 Reaktor Hello World 1 43743U 18096AA 23005.45448973 .00025176 00000-0 61496-3 0 9999 2 43743 97.3382 90.1003 0013874 55.1869 305.0680 15.40723650228989 MinXSS-2 1 43758U 18099A 23005.44850236 .00005263 00000-0 44097-3 0 9999 2 43758 97.6010 73.3980 0013435 307.2312 52.7685 14.98766562223347 AO-95 1 43770U 18099N 23005.05972995 .00005321 00000-0 45921-3 0 9999 2 43770 97.5981 71.0390 0012466 325.4510 34.5901 14.97618542223175 RANGE-B 1 43772U 18099Q 23005.14963926 .00005840 00000-0 49057-3 0 9995 2 43772 97.6125 73.3413 0011994 311.2840 48.7350 14.98635221223228 RANGE-A 1 43773U 18099R 23005.45587550 .00003817 00000-0 33707-3 0 9992 2 43773 97.5899 69.9400 0011516 310.5257 49.4961 14.96896636223208 MOVE-II 1 43780U 18099Y 23005.46713896 .00008910 00000-0 72448-3 0 9999 2 43780 97.6047 73.1645 0010065 325.5234 34.5336 14.99758823223310 SNUSat 2 1 43782U 18099AA 23005.42329594 .00003262 00000-0 28304-3 0 9992 2 43782 97.5983 71.9034 0011239 307.6964 52.3239 14.97696985223254 SnugLite 1 43784U 18099AC 23005.42537973 .00003893 00000-0 33369-3 0 9993 2 43784 97.5940 71.5288 0013699 313.9690 46.0402 14.98034600223280 ITASat 1 1 43786U 18099AE 23005.44341111 .00003666 00000-0 31808-3 0 9998 2 43786 97.6000 72.4262 0013526 313.1241 46.8849 14.97601831223272 EAGLET 1 1 43790U 18099AJ 23005.45981153 .00003466 00000-0 30122-3 0 9996 2 43790 97.5999 72.9816 0011517 319.1417 40.8941 14.97586399223012 ESEO 1 43792U 18099AL 23005.48950684 .00001160 00000-0 10647-3 0 9995 2 43792 97.5948 71.8892 0012128 317.0826 42.9449 14.96704309223041 CSIM 1 43793U 18099AM 23005.48437601 .00007142 00000-0 57161-3 0 9993 2 43793 97.6102 74.3181 0014501 307.7177 52.2732 15.00400871223150 Astrocast 0.1 1 43798U 18099AS 23005.41763673 .00005888 00000-0 48660-3 0 9991 2 43798 97.6046 73.8133 0010255 297.3278 62.6901 14.99275537223352 JO-97 1 43803U 18099AX 23005.17853620 .00005044 00000-0 42717-3 0 9994 2 43803 97.5959 72.0116 0013187 311.7395 48.2699 14.98370410223260 Suomi 100 1 43804U 18099AY 23005.41400075 .00003870 00000-0 33025-3 0 9991 2 43804 97.5980 72.1139 0013313 315.1510 44.8636 14.98210541223305 Al Farabi 2 1 43805U 18099AZ 22364.16247822 .00003922 00000-0 32713-3 0 9991 2 43805 97.6006 66.7831 0014644 333.7607 26.2875 14.99080958222402 CHOMPTT 1 43855U 18104G 23005.17397552 .00016026 00000-0 52013-3 0 9997 2 43855 85.0339 276.2851 0012264 197.2328 162.8505 15.31755349225552 ISAT 1 43879U 18111D 23005.17399401 .00005037 00000-0 41418-3 0 9993 2 43879 97.6563 272.1434 0013740 7.3433 352.7988 14.99513284219883 UWE-4 1 43880U 18111E 23005.49474482 .00006148 00000-0 50345-3 0 9996 2 43880 97.6617 273.2795 0012803 17.0077 343.1573 14.99593529219961 Sparrow 1 43881U 18111F 23005.55276741 .00006916 00000-0 56220-3 0 9993 2 43881 97.6602 273.6534 0012043 19.3413 340.8265 14.99837753217988 Lume 1 1 43908U 18111AJ 23005.40517521 .00019103 00000-0 55325-3 0 9998 2 43908 97.1653 252.1080 0018295 71.5181 288.8049 15.35446718224329 FO-99 1 43937U 19003F 23005.53927472 .00023572 00000-0 64781-3 0 9996 2 43937 97.1095 36.5309 0018615 143.4333 216.8187 15.37034612220949 AstroCast 0.2 1 44083U 19018F 23005.42156505 .00023438 00000-0 74005-3 0 9995 2 44083 97.2962 65.8288 0009038 119.2386 240.9762 15.32797697209358 AISTechSat 3 1 44103U 19018AB 23005.39977839 .00016209 00000-0 52682-3 0 9990 2 44103 97.2825 65.8565 0011875 131.7779 228.4480 15.31917707209515 AISat 1 1 44104U 19018AC 23005.50311081 .00014857 00000-0 36668-3 0 9998 2 44104 97.3853 94.7634 0048684 126.8043 233.7684 15.39366358210631 Prox-1 1 44339U 19036A 23005.35143263 .00006195 00000-0 13162-2 0 9995 2 44339 24.0026 357.5986 0009374 268.6731 91.2687 14.56574451187807 Oculus-ASR 1 44348U 19036K 23005.26936396 .00221087 74966-5 93149-3 0 9992 2 44348 28.4895 210.5999 0126921 103.3997 258.0792 15.72706131195897 NO-104 1 44354U 19036R 23005.59783461 .00241013 11158-4 82343-3 0 9996 2 44354 28.5151 186.4352 0109133 138.0583 222.8444 15.79280843196164 Move-IIb 1 44398U 19038N 22364.13309402 .00019028 00000-0 76981-3 0 9992 2 44398 97.6498 336.2487 0018884 162.3874 197.8024 15.24592615192784 SONATE 1 44400U 19038Q 23004.88761775 .00008685 00000-0 44006-3 0 9995 2 44400 97.6658 339.8860 0023100 154.0979 206.1416 15.16989594193441 BeeSat 9 1 44412U 19038AC 23005.14777099 .00016724 00000-0 75240-3 0 9991 2 44412 97.6593 341.7132 0019326 150.6544 209.5781 15.21010362193302 JAISAT-1 1 44419U 19038F 23005.40073682 .00014330 00000-0 63726-3 0 9991 2 44419 97.6596 342.9595 0018515 146.3009 213.9408 15.21457672193714 Taurus 1 1 44530U 19059C 23005.40441890 .00003527 00000-0 95919-3 0 9993 2 44530 98.5498 111.0338 0013028 223.5316 136.4885 14.48078429175065 Duchifat 3 1 44854U 19089C 23005.31187536 .00006582 00000-0 48707-3 0 9996 2 44854 36.9660 342.2748 0005914 57.7693 51.0842 15.02851685168290 OPS-SAT 1 44878U 19092F 23005.24008621 .00017589 00000-0 71487-3 0 9995 2 44878 97.4753 193.0460 0011736 1.5792 358.5481 15.24553991168882 TO-108 1 44881U 19093C 23005.40902251 .00000939 00000-0 12489-3 0 9998 2 44881 97.8775 86.5796 0013569 247.2041 112.7750 14.82011638164687 FloripaSat 1 1 44885U 19093G 23005.41952694 .00003305 00000-0 40242-3 0 9997 2 44885 97.8835 88.5017 0012925 251.8581 108.1228 14.84050779164793 RS-44 1 44909U 19096E 23005.52602807 .00000010 00000-0 -52324-6 0 9995 2 44909 82.5217 96.0364 0217168 207.0164 151.9501 12.79717418141359 BY70-2 1 45857U 20042B 23005.35074625 .00012533 00000-0 15430-2 0 9998 2 45857 97.9414 85.5139 0010057 176.0339 184.0960 14.83061117135344 UPMSat 2 1 46276U 20061E 23005.41361744 .00007041 00000-0 32944-3 0 9991 2 46276 97.3707 76.5928 0001942 132.6231 227.5168 15.20051534129538 AmicalSat 1 46287U 20061R 23005.16119287 .00009559 00000-0 51255-3 0 9990 2 46287 97.4249 75.1189 0001394 334.9283 25.1881 15.15179318128988 SALSAT 1 46495U 20068K 23005.28507684 .00003394 00000-0 23906-3 0 9996 2 46495 97.7523 312.0086 0015025 318.2893 41.7187 15.05639482124547 BY70-3 1 46839U 20079N 23005.53018597 .00066287 00000-0 94177-3 0 9996 2 46839 97.1762 81.2928 0003298 322.8019 161.0565 15.56181650121490 CAPE 3 1 47309U 21002A 23005.57273811 .00018999 00000-0 64546-3 0 9996 2 47309 60.6823 321.8259 0041858 95.6212 264.9654 15.29748511109314 AO-109 1 47311U 21002C 23005.39359115 .00016248 00000-0 55791-3 0 9998 2 47311 60.6849 319.9413 0039063 93.5452 267.0107 15.29613835109309 MiTEE 1 1 47314U 21002F 23005.54966907 .00045757 00000-0 10931-2 0 9994 2 47314 60.6796 304.3741 0035995 87.3941 273.1274 15.40530954109608 ExoCube 2 1 47319U 21002L 23005.45500015 .00015774 00000-0 55052-3 0 9993 2 47319 60.6833 321.2861 0039852 95.1150 265.4491 15.29075842109254 UVSQ-SAT 1 47438U 21006AB 23005.13284144 .00011396 00000-0 55319-3 0 9998 2 47438 97.4120 65.0424 0009793 297.9808 62.0435 15.18594980107854 YUSAT 1 1 47439U 21006AC 23005.40942674 .00012536 00000-0 59052-3 0 9993 2 47439 97.4128 65.6314 0009421 296.2418 63.7848 15.19616207107915 SOMP 2b 1 47445U 21006AJ 23005.38324531 .00010671 00000-0 52606-3 0 9999 2 47445 97.4090 64.7581 0009653 302.0661 57.9635 15.18073964107879 IDEASSat 1 47458U 21006AX 23005.38757726 .00010052 00000-0 49873-3 0 9994 2 47458 97.4180 65.4427 0008810 301.0533 58.9836 15.17873267107867 CubeSX-Sirius-HSE 1 47951U 21022V 23005.57359816 .00007182 00000-0 44964-3 0 9995 2 47951 97.5137 265.8554 0020185 169.8140 275.1344 15.09517618 98466 CubeSX-HSE 1 47952U 21022W 23005.55118825 .00006634 00000-0 41518-3 0 9990 2 47952 97.5124 265.8667 0019897 169.2488 264.1830 15.09565959 98464 KSU-Cubesat 1 47954U 21022Y 23005.52670114 .00009057 00000-0 55850-3 0 9999 2 47954 97.5154 266.0496 0019790 168.4552 191.7136 15.10002452 98197 GRBAlpha 1 47959U 21022AD 23005.54692089 .00007074 00000-0 44183-3 0 9995 2 47959 97.5134 265.9202 0019751 169.2863 275.4642 15.09615497 97282 Orbicraft-Zorkiy 1 47960U 21022AE 23005.49652660 .00007626 00000-0 47184-3 0 9999 2 47960 97.5155 266.1197 0019455 169.3078 294.4674 15.09939658 97973 STECCO 1 47962U 21022AG 23005.46774683 .00012782 00000-0 72407-3 0 9993 2 47962 97.5129 267.4221 0015105 158.9943 13.2769 15.13048541 97374 DO-111 1 47963U 21022AH 23004.97929125 .00044515 00000-0 19010-2 0 9991 2 47963 97.5178 269.8545 0014518 145.4599 214.7583 15.22644357 97503 MO-110 1 47964U 21022AJ 23005.48990700 .00012182 00000-0 68009-3 0 9994 2 47964 97.5153 267.8548 0017542 155.6365 204.5700 15.13549250 97405 FEES 1 48082U 21022AL 23005.54254526 .00019986 00000-0 10544-2 0 9991 2 48082 97.5161 268.1671 0013681 149.4449 210.7583 15.15502597 97134 CSS 1 48274U 21035A 23005.94145833 .00011063 00000-0 13587-3 0 9991 2 48274 41.4773 64.7555 0005876 276.1393 73.6808 15.60179126 96456 TUBIN 1 48900U 21059X 23005.58122998 .00006771 00000-0 35740-3 0 9995 2 48900 97.5766 138.8335 0010686 120.9695 299.1243 15.15813538 84515 IT-SPINS 1 49017U 21013G 23005.39842067 .00019133 00000-0 63043-3 0 9993 2 49017 51.5956 150.1791 0007206 91.5993 268.5813 15.31458814 84677 LEDSAT 1 49069U 21073D 23005.23480758 .00006199 00000-0 37670-3 0 9999 2 49069 97.5048 79.1199 0025139 325.1367 34.8215 15.10565220 76278 CUTE 1 49263U 21088D 23005.46153095 .00005521 00000-0 39132-3 0 9990 2 49263 97.5680 74.3251 0020502 97.8803 262.4752 15.05017864 69782 TeikyoSat 4 1 49396U 21102B 23005.42681856 .00002056 00000-0 16389-3 0 9990 2 49396 97.5429 62.2877 0015172 300.6838 59.2891 15.01345045 63343 Z-Sat 1 49399U 21102E 23005.56571306 .00003483 00000-0 25948-3 0 9992 2 49399 97.5120 63.5896 0021516 262.8469 97.0310 15.03377409 63445 KOSEN 1 1 49402U 21102H 23005.40684594 .00003422 00000-0 24663-3 0 9990 2 49402 97.5048 63.7216 0019865 252.2548 107.6510 15.04668492 63460 HO-113 1 50466U 21131B 23005.50704509 .00000399 00000-0 14488-3 0 9998 2 50466 98.5663 87.5168 0003585 261.3183 98.7598 14.38611794 53963 Tevel-3 1 50988U 22002E 23005.56124528 .00012976 00000-0 64229-3 0 9990 2 50988 97.4594 74.3092 0010273 84.2897 21.4641 15.17876774 54039 Tevel-8 1 50989U 22002F 23005.57390750 .00013074 00000-0 64810-3 0 9990 2 50989 97.4604 74.3619 0010452 83.2089 24.5959 15.17820793 54034 Tevel-5 1 50998U 22002Q 23005.58087840 .00013324 00000-0 64840-3 0 9995 2 50998 97.4583 74.5563 0011878 80.1249 32.1565 15.18448437 54059 Tevel-6 1 50999U 22002R 23005.57937528 .00013373 00000-0 65065-3 0 9996 2 50999 97.4581 74.5509 0011799 79.9812 29.8323 15.18456149 54056 Tevel-1 1 51013U 22002AF 23005.56709847 .00013010 00000-0 64454-3 0 9993 2 51013 97.4586 74.2787 0010161 82.5790 23.1917 15.17846734 54037 Grizu-263a 1 51025U 22002AT 23005.42605408 .00025984 00000-0 10751-2 0 9992 2 51025 97.4757 76.4375 0011926 79.7682 280.4900 15.23867936 54118 NO-116 1 51031U 22002AZ 23005.16481496 .00021037 00000-0 95273-3 0 9997 2 51031 97.4714 75.3507 0012920 82.5319 277.7384 15.20824481 54038 IRIS-A 1 51044U 22002BN 23005.40303516 .00008085 00000-0 42949-3 0 9994 2 51044 97.4596 73.6049 0010274 86.5547 273.6861 15.15519054 53977 Tevel-7 1 51062U 22002CG 23005.57676344 .00013047 00000-0 64680-3 0 9994 2 51062 97.4605 74.3450 0010366 82.1301 30.0887 15.17821513 54033 Tevel-4 1 51063U 22002CH 23005.57844031 .00013009 00000-0 64531-3 0 9998 2 51063 97.4596 74.3379 0010394 83.6293 26.0715 15.17800456 54038 Tevel-2 1 51069U 22002CP 23005.56307376 .00012998 00000-0 64343-3 0 9996 2 51069 97.4581 74.2893 0010267 83.9578 21.7674 15.17873647 54034 DELFI-PQ 1 51074U 22002CU 23005.45640090 .00019061 00000-0 81483-3 0 9995 2 51074 97.4842 77.0898 0013270 107.6558 252.6129 15.22812351 54137 SO-115 1 51080U 22002DA 23005.15559117 .00016628 00000-0 76231-3 0 9999 2 51080 97.4855 76.3292 0013610 110.3157 249.9542 15.20445777 54053 SO-114 1 51081U 22002DB 23005.41810847 .00014814 00000-0 67869-3 0 9991 2 51081 97.4844 76.5530 0013830 109.3661 250.9071 15.20491286 54090 OreSat0 1 52017U 22026K 23004.88882526 .00014333 00000-0 69716-3 0 9999 2 52017 97.5080 7.6096 0023888 297.3616 62.5187 15.18259865 44712 Planetum 1 1 52738U 22057G 23004.89139593 .00010774 00000-0 58504-3 0 9991 2 52738 97.5265 121.7647 0007442 187.3674 172.7450 15.14682251 33896 Foresail-1 1 52766U 22057AL 23005.46626477 .00007828 00000-0 41725-3 0 9991 2 52766 97.5365 123.0084 0013209 169.8079 254.6272 15.15387302 34006 SNUGLITE 2 1 52899U 22065F 23005.13467819 .00001113 00000-0 24830-3 0 9993 2 52899 98.0433 154.8283 0008320 14.6768 345.4672 14.58651718 27082 CTIM 1 52950U 22074G 23005.51168154 .00012859 00000-0 45926-3 0 9991 2 52950 45.0191 178.4896 0009460 268.9518 91.0305 15.28859116 28592 IO-117 1 53106U 22080B 22354.08419093 -.00000003 00000-0 00000-0 0 9991 2 53106 70.1702 21.9397 0008914 226.9685 182.2049 6.42557326 10248 AstroBioCubeSat 1 53107U 22080C 22335.48380186 -.00000003 00000-0 00000-0 0 9995 2 53107 70.1769 28.4953 0013706 220.7562 139.2073 6.42110748 8949 CELESTA 1 53111U 22080G 22310.17474584 -.00000003 00000-0 00000-0 0 9995 2 53111 70.4223 37.2580 0024959 243.8956 115.9136 6.43203861 7301 RS4S 1 53306U 98067TR 23005.56303200 .00344350 00000-0 14855-2 0 9990 2 53306 51.6307 40.4382 0006576 15.7520 344.3686 15.83451311 26235 RS3S 1 53308U 98067TT 23005.28378562 .00283391 00000-0 13656-2 0 9999 2 53308 51.6334 42.3292 0006098 12.2390 347.8759 15.81243580 26249 RS1S 1 53309U 98067TU 23004.54751138 .00374954 00000-0 17005-2 0 9990 2 53309 51.6318 45.6485 0006606 9.0303 351.0817 15.82306568 26086 RS5S 1 53310U 98067TV 23005.59654235 .00284150 00000-0 13396-2 0 9995 2 53310 51.6340 40.6675 0006090 11.4700 348.6440 15.81714785 26272 RS6S 1 53311U 98067TW 23005.38658153 .00371426 00000-0 15086-2 0 9997 2 53311 51.6293 40.7410 0006537 18.2804 341.8434 15.84652109 26276 RS9S 1 53312U 98067TX 23005.56902006 .00306667 00000-0 14000-2 0 9997 2 53312 51.6303 40.4762 0006810 12.8863 347.2312 15.82340558 26236 RS12S 1 53313U 98067TY 23005.56180965 .00316712 00000-0 14329-2 0 9996 2 53313 51.6324 40.4333 0006721 16.0931 344.0284 15.82507833 26286 JAGSAT 1 53771U 98067UJ 23004.83440676 .00438082 00000-0 18506-2 0 9997 2 53771 51.6311 46.0757 0008747 13.7204 346.4035 15.83639619 18841 SelfieSat 1 53951U 22057BA 23005.29533696 .00011186 00000-0 59970-3 0 9992 2 53951 97.5318 122.4461 0009955 181.0318 179.0895 15.15106384 33962 FO-118 1 54684U 22167C 23005.59672238 .00009716 00000-0 61402-3 0 9996 2 54684 97.5390 145.1172 0014940 170.3531 320.5583 15.09155553 4112 HO-119 1 54816U 21035C 23005.59716024 .00140121 00000-0 14175-2 0 9998 2 54816 41.4783 66.4825 0005408 320.1883 39.8565 15.64038504 2774 /EX
